KB1GNF Weather Reports


time (UTC)temp
C
wind
direction
speed
KPH
gust
KPH
rain 1hr
cm
rain 24hr
cm
rain mn
cm
humidity
%
barometer
mb
20260504175005 20 318 8.0 20.9 0.00 0.00 0.00 36 1007.1
20260504174516 20 298 8.0 20.9 0.00 0.00 0.00 37 1007.2
20260504174007 20 221 8.0 27.4 0.00 0.00 0.00 37 1007.2
20260504173506 20 56 11.3 27.4 0.00 0.00 0.00 36 1007.3
20260504173023 20 234 4.8 22.5 0.00 0.00 0.00 36 1007.3
20260504172505 19 185 6.4 22.5 0.00 0.00 0.00 38 1007.3
20260504172009 19 259 11.3 22.5 0.00 0.00 0.00 36 1007.3
20260504171529 19 219 3.2 20.9 0.00 0.00 0.00 36 1007.2
20260504171003 20 243 9.7 29.0 0.00 0.00 0.00 34 1007.4
20260504170502 20 272 8.0 30.6 0.00 0.00 0.00 36 1007.4
20260504151007 18 214 16.1 32.2 0.00 0.00 0.00 39 1008.5
20260504150511 18 206 11.3 24.1 0.00 0.00 0.00 39 1008.6
20260504141002 16 205 12.9 25.7 0.00 0.00 0.00 46 1009.3
20260504140502 16 211 11.3 19.3 0.00 0.00 0.00 46 1009.3
20260504130508 12 124 3.2 12.9 0.00 0.00 0.00 56 1009.8
20260504110506 7 238 8.0 17.7 0.00 0.00 0.00 67 1010.8
20260504100504 2 222 0.0 1.6 0.00 0.00 0.00 84 1010.3
20260504082007 4 219 0.0 1.6 0.00 0.00 0.00 79 1010.0
20260504081520 4 220 0.0 1.6 0.00 0.00 0.00 78 1010.0
20260504081013 4 220 0.0 1.6 0.00 0.00 0.00 78 1009.9
20260504080507 4 220 0.0 3.2 0.00 0.00 0.00 79 1010.0
20260504050508 3 54 0.0 0.0 0.00 0.00 0.00 83 1010.3
20260504050015 3 55 0.0 0.0 0.00 0.00 0.00 83 1010.4
20260504045502 3 335 0.0 0.0 0.00 0.00 0.00 83 1010.4
20260504045004 3 326 0.0 0.0 0.00 0.00 0.00 83 1010.6
20260504044504 3 326 0.0 0.0 0.00 0.00 0.00 83 1010.5
20260504044005 3 326 0.0 0.0 0.00 0.00 0.00 84 1010.4
20260504043503 3 326 0.0 0.0 0.00 0.00 0.00 83 1010.4
20260504043007 2 326 0.0 0.0 0.00 0.00 0.00 83 1010.4
20260504042505 2 326 0.0 0.0 0.00 0.00 0.00 83 1010.5
20260504042004 2 326 0.0 0.0 0.00 0.00 0.00 82 1010.4
20260504041510 2 326 0.0 0.0 0.00 0.00 0.00 81 1010.4
20260504041002 2 326 0.0 0.0 0.00 0.00 0.00 82 1010.4
20260504040502 2 326 0.0 0.0 0.00 0.00 0.00 82 1010.3
20260504040034 2 326 0.0 0.0 0.00 0.00 0.00 83 1010.3
20260504035508 2 326 0.0 0.0 0.00 0.00 0.00 83 1010.3
20260504035008 2 326 0.0 0.0 0.00 0.00 0.00 82 1010.3
20260504034523 2 326 0.0 0.0 0.00 0.00 0.00 82 1010.2
20260504034007 2 326 0.0 0.0 0.00 0.00 0.00 82 1010.2
20260504033503 2 326 0.0 0.0 0.00 0.00 0.00 83 1010.2
20260504033006 1 326 0.0 0.0 0.00 0.00 0.00 83 1010.1
20260504032503 1 326 0.0 0.0 0.00 0.00 0.00 83 1010.1
20260504032003 1 326 0.0 0.0 0.00 0.00 0.00 83 1010.1
20260504031507 1 326 0.0 0.0 0.00 0.00 0.00 82 1010.1
20260504031004 1 326 0.0 0.0 0.00 0.00 0.00 82 1010.1
20260504030504 1 326 0.0 0.0 0.00 0.00 0.00 81 1010.1
20260504030010 1 326 0.0 0.0 0.00 0.00 0.00 81 1010.1
20260504025504 1 326 0.0 0.0 0.00 0.00 0.00 81 1010.0
20260504025009 1 325 0.0 0.0 0.00 0.00 0.00 81 1010.1
20260504024516 1 321 0.0 0.0 0.00 0.00 0.00 81 1010.0
20260504024008 1 321 0.0 0.0 0.00 0.00 0.00 81 1010.1
20260504023509 1 319 0.0 0.0 0.00 0.00 0.00 80 1010.0
20260504023019 2 319 0.0 0.0 0.00 0.00 0.00 80 1010.0
20260504022506 2 319 0.0 0.0 0.00 0.00 0.00 80 1010.0
20260504022009 2 319 0.0 0.0 0.00 0.00 0.00 79 1009.9
20260504021504 2 319 0.0 0.0 0.00 0.00 0.00 78 1009.8
20260504021003 2 319 0.0 0.0 0.00 0.00 0.00 78 1009.7
20260504020504 2 319 0.0 0.0 0.00 0.00 0.00 77 1009.7
20260504020008 2 319 0.0 0.0 0.00 0.00 0.00 77 1009.6
20260504015504 2 319 0.0 0.0 0.00 0.00 0.00 76 1009.6
20260504015007 2 319 0.0 0.0 0.00 0.00 0.00 76 1009.6
20260504014521 2 319 0.0 0.0 0.00 0.00 0.00 75 1009.6
20260504014003 2 319 0.0 0.0 0.00 0.00 0.00 74 1009.5
20260504013506 3 319 0.0 0.0 0.00 0.00 0.00 74 1009.5
20260504013019 3 319 0.0 0.0 0.00 0.00 0.00 74 1009.5
20260504012507 3 319 0.0 0.0 0.00 0.00 0.00 74 1009.4
20260504012008 3 319 0.0 0.0 0.00 0.00 0.00 74 1009.4
20260504011523 3 319 0.0 0.0 0.00 0.00 0.00 74 1009.3
20260504011010 3 319 0.0 0.0 0.00 0.00 0.00 73 1009.3
20260504010507 3 319 0.0 0.0 0.00 0.00 0.00 72 1009.1
20260504010024 3 319 0.0 0.0 0.00 0.00 0.00 73 1009.0
20260504005504 4 313 0.0 0.0 0.00 0.00 0.00 72 1008.9
20260504005003 4 313 0.0 0.0 0.00 0.00 0.00 71 1008.9
20260504004511 4 311 0.0 0.0 0.00 0.00 0.00 69 1008.8
20260504004002 5 311 0.0 0.0 0.00 0.00 0.00 69 1008.7
20260504003507 5 311 0.0 0.0 0.00 0.00 0.00 68 1008.7
20260504003012 5 311 0.0 0.0 0.00 0.00 0.00 66 1008.7
20260504002504 5 312 0.0 0.0 0.00 0.00 0.00 67 1008.6
20260504002008 5 311 0.0 0.0 0.00 0.00 0.00 66 1008.6
20260504001518 6 312 0.0 0.0 0.00 0.00 0.00 65 1008.5
20260504001008 6 312 0.0 0.0 0.00 0.00 0.00 64 1008.4
20260504000506 6 312 0.0 0.0 0.00 0.00 0.00 61 1008.4
20260504000024 7 312 0.0 0.0 0.00 0.00 0.00 60 1008.3
20260503235507 7 312 0.0 0.0 0.00 0.00 0.00 60 1008.3
20260503235007 7 312 0.0 0.0 0.00 0.00 0.00 58 1008.3
20260503234524 8 312 0.0 0.0 0.00 0.00 0.00 57 1008.3
20260503234004 8 264 0.0 1.6 0.00 0.00 0.00 50 1008.2
20260503233503 9 233 0.0 1.6 0.00 0.00 0.00 49 1008.2
20260503233009 10 280 0.0 1.6 0.00 0.00 0.00 49 1008.2
20260503232507 10 280 0.0 3.2 0.00 0.00 0.00 48 1008.2
20260503232007 10 58 0.0 3.2 0.00 0.00 0.00 44 1008.2
20260503231516 10 338 0.0 6.4 0.00 0.00 0.00 43 1008.1
20260503231008 11 347 0.0 6.4 0.00 0.00 0.00 43 1008.1
20260503230508 11 3 0.0 6.4 0.00 0.00 0.00 43 1008.0
20260503230021 11 26 1.6 4.8 0.00 0.00 0.00 41 1008.1
20260503225506 11 358 0.0 6.4 0.00 0.00 0.00 43 1008.1
20260503225012 11 342 4.8 8.0 0.00 0.00 0.00 42 1008.0
20260503224524 11 328 1.6 9.7 0.00 0.00 0.00 40 1008.1
20260503224007 11 309 3.2 11.3 0.00 0.00 0.00 39 1008.0
20260503223508 11 341 3.2 11.3 0.00 0.00 0.00 40 1008.1
20260503223028 11 8 1.6 8.0 0.00 0.00 0.00 43 1008.1
20260503222508 11 353 1.6 11.3 0.00 0.00 0.00 42 1008.2
20260503222004 11 326 3.2 11.3 0.00 0.00 0.00 43 1008.1
20260503221511 11 300 4.8 9.7 0.00 0.00 0.00 41 1008.1
20260503221006 11 354 1.6 6.4 0.00 0.00 0.00 44 1008.1
20260503220504 11 290 3.2 11.3 0.00 0.00 0.00 41 1008.1
20260503220017 11 321 6.4 11.3 0.00 0.00 0.00 42 1008.2
20260503215509 10 315 3.2 8.0 0.00 0.00 0.00 44 1008.1
20260503215011 10 326 3.2 8.0 0.00 0.00 0.00 43 1008.1
20260503214522 11 291 3.2 11.3 0.00 0.00 0.00 43 1008.2
20260503214008 11 322 3.2 11.3 0.00 0.00 0.00 41 1008.2
20260503213511 11 6 3.2 9.7 0.00 0.00 0.00 41 1008.1
20260503213024 11 267 3.2 8.0 0.00 0.00 0.00 40 1008.2
20260503212509 11 274 1.6 8.0 0.00 0.00 0.00 41 1008.1
20260503212009 11 293 1.6 8.0 0.00 0.00 0.00 42 1008.1
20260503211528 11 283 1.6 8.0 0.00 0.00 0.00 41 1008.0
20260503211011 11 311 3.2 16.1 0.00 0.00 0.00 40 1008.0
20260503210506 11 321 4.8 25.7 0.00 0.00 0.00 38 1008.0
20260503210015 11 347 11.3 25.7 0.00 0.00 0.00 39 1007.9
20260503205510 12 350 11.3 25.7 0.00 0.00 0.00 39 1008.0
20260503205007 11 274 4.8 16.1 0.00 0.00 0.00 41 1007.8
20260503204526 11 352 8.0 16.1 0.00 0.00 0.00 40 1007.9
20260503204012 11 332 4.8 14.5 0.00 0.00 0.00 39 1008.0
20260503203507 11 304 4.8 17.7 0.00 0.00 0.00 40 1007.9
20260503203024 11 12 9.7 17.7 0.00 0.00 0.00 41 1007.8
20260503202507 12 352 3.2 24.1 0.00 0.00 0.00 42 1007.8
20260503202005 11 335 8.0 24.1 0.00 0.00 0.00 42 1007.8
20260503201506 11 343 11.3 24.1 0.00 0.00 0.00 43 1007.8
20260503201004 10 353 4.8 17.7 0.00 0.00 0.00 44 1007.8
20260503200505 10 1 8.0 17.7 0.00 0.00 0.00 42 1007.9
20260503200012 10 328 3.2 20.9 0.00 0.00 0.00 44 1007.9
20260503195506 10 300 6.4 20.9 0.00 0.00 0.00 44 1007.9
20260503195005 10 4 11.3 24.1 0.00 0.00 0.00 42 1008.0
20260503194512 11 344 4.8 24.1 0.00 0.00 0.00 45 1008.0
20260503194004 11 330 4.8 17.7 0.00 0.00 0.00 45 1008.0
20260503193505 10 333 9.7 20.9 0.00 0.00 0.00 42 1008.1
20260503193006 10 337 6.4 25.7 0.00 0.00 0.00 44 1008.1
20260503192503 10 281 11.3 25.7 0.00 0.00 0.00 42 1008.1
20260503192005 10 1 9.7 20.9 0.00 0.00 0.00 43 1008.0
20260503191504 10 314 6.4 17.7 0.00 0.00 0.00 42 1007.9
20260503191004 11 346 8.0 16.1 0.00 0.00 0.00 40 1007.9
20260503190506 11 320 8.0 20.9 0.00 0.00 0.00 44 1007.9
20260503190011 10 9 8.0 22.5 0.00 0.00 0.00 43 1008.0
20260503185504 10 280 8.0 22.5 0.00 0.00 0.00 45 1008.0
20260503185007 10 327 9.7 19.3 0.00 0.00 0.00 44 1008.0
20260503184522 10 296 8.0 19.3 0.00 0.00 0.00 45 1008.0
20260503184008 10 344 4.8 20.9 0.00 0.00 0.00 46 1007.9
20260503183504 10 305 4.8 20.9 0.00 0.00 0.00 43 1007.8
20260503183016 11 295 6.4 17.7 0.00 0.00 0.00 44 1007.9
20260503182505 10 64 4.8 24.1 0.00 0.00 0.00 47 1007.9
20260503182006 10 350 9.7 24.1 0.00 0.00 0.00 44 1007.8
20260503181505 11 341 8.0 22.5 0.00 0.00 0.00 44 1007.7
20260503181003 11 335 6.4 19.3 0.00 0.00 0.00 43 1007.6
20260503180504 11 309 6.4 19.3 0.00 0.00 0.00 42 1007.6
20260503180016 10 302 4.8 19.3 0.00 0.00 0.00 43 1007.6
20260503175504 11 333 8.0 16.1 0.00 0.00 0.00 44 1007.8